TimeEDT,TemperatureF,Dew PointF,Humidity,Sea Level PressureIn,VisibilityMPH,Wind Direction,Wind SpeedMPH,Gust SpeedMPH,PrecipitationIn,Events,Conditions,WindDirDegrees,DateUTC
12:53 AM,70.0,64.9,84,30.03,10.0,North,3.5,-,N/A,,Overcast,360,2013-09-29 04:53:00
1:53 AM,71.1,66.0,84,30.02,10.0,North,5.8,-,N/A,,Overcast,10,2013-09-29 05:53:00
2:53 AM,70.0,66.0,87,30.00,10.0,North,4.6,-,N/A,,Overcast,350,2013-09-29 06:53:00
3:53 AM,69.1,66.0,90,30.00,10.0,NNW,6.9,-,N/A,,Overcast,330,2013-09-29 07:53:00
4:53 AM,68.0,64.9,90,29.99,10.0,North,8.1,-,N/A,,Mostly Cloudy,350,2013-09-29 08:53:00
5:53 AM,66.9,64.9,93,30.00,10.0,North,3.5,-,N/A,,Clear,10,2013-09-29 09:53:00
6:53 AM,66.9,64.9,93,30.02,10.0,North,5.8,-,N/A,,Partly Cloudy,350,2013-09-29 10:53:00
7:53 AM,66.9,64.0,90,30.02,10.0,NNE,3.5,-,N/A,,Clear,30,2013-09-29 11:53:00
8:01 AM,66.2,64.4,94,30.03,10.0,NNE,4.6,-,N/A,,Partly Cloudy,20,2013-09-29 12:01:00
8:53 AM,71.1,66.0,84,30.03,10.0,NNE,6.9,-,N/A,,Clear,30,2013-09-29 12:53:00
9:53 AM,75.9,66.9,74,30.04,10.0,NE,6.9,-,N/A,,Clear,40,2013-09-29 13:53:00
10:53 AM,79.0,68.0,69,30.02,10.0,East,11.5,18.4,N/A,,Partly Cloudy,80,2013-09-29 14:53:00
11:53 AM,81.0,69.1,67,30.02,10.0,ENE,9.2,-,N/A,,Scattered Clouds,60,2013-09-29 15:53:00
12:07 PM,80.6,68.0,65,30.03,10.0,NE,9.2,-,N/A,,Mostly Cloudy,50,2013-09-29 16:07:00
12:27 PM,82.4,68.0,62,30.03,10.0,East,9.2,-,N/A,,Mostly Cloudy,80,2013-09-29 16:27:00
12:53 PM,82.9,68.0,60,30.01,10.0,East,10.4,-,N/A,,Partly Cloudy,90,2013-09-29 16:53:00
1:53 PM,82.9,66.9,58,29.99,10.0,East,6.9,-,N/A,,Scattered Clouds,100,2013-09-29 17:53:00
2:53 PM,82.9,66.0,56,29.96,10.0,NNE,9.2,-,N/A,,Mostly Cloudy,20,2013-09-29 18:53:00
3:53 PM,82.0,66.0,58,29.95,10.0,NNE,6.9,-,N/A,,Overcast,30,2013-09-29 19:53:00
4:53 PM,81.0,66.0,60,29.94,10.0,ENE,9.2,-,N/A,,Mostly Cloudy,60,2013-09-29 20:53:00
5:53 PM,80.1,66.9,64,29.95,10.0,East,5.8,-,N/A,,Mostly Cloudy,80,2013-09-29 21:53:00
6:53 PM,77.0,66.0,69,29.96,10.0,ENE,9.2,-,N/A,,Partly Cloudy,60,2013-09-29 22:53:00
7:53 PM,73.0,66.0,79,29.98,10.0,East,5.8,-,N/A,,Clear,80,2013-09-29 23:53:00
8:53 PM,72.0,66.0,81,30.00,10.0,ENE,3.5,-,N/A,,Clear,70,2013-09-30 00:53:00
9:53 PM,71.1,66.0,84,30.00,10.0,ENE,4.6,-,N/A,,Overcast,60,2013-09-30 01:53:00
10:53 PM,71.1,66.0,84,30.00,10.0,NE,4.6,-,N/A,,Overcast,50,2013-09-30 02:53:00
11:53 PM,71.1,66.9,87,30.00,10.0,Calm,Calm,-,N/A,,Overcast,0,2013-09-30 03:53:00